Showing default

SJ-20, 44910

Orbit data source: Space-Track

SJ-20, 44910 is a Chinese payload satellite in GEO that was launched on Fri, 27 Dec 2019 UTC via a CHANG ZHENG 5 launch vehicle from the Wenchang Satellite Launch Center (WSC). Payload-class satellites include a variety of spacecraft equipped with specific instruments for various scientific and technological missions. These include communications satellites like Starlink; space stations such as the ISS; scientific satellites like the Hubble; Earth observation satellites from companies like Planet Labs, Umbra, and HawkEye 360; GPS; miniature CubeSats for education and research; and military/defense satellites.

Not visible in the next 10 days
Identifier
44910, 2019-097A
Orbit
GEO
Country
Flag of CNCN / PRC
Related business
Manufacturer
CAST
Mission
Operational Civil Communications
Bus & Motor
DFH-5, Unknown motor
Mass
~7,600 kg wet, ~5,000 kg dry
Launch date (UTC)
2019-12-27 (6 years ago)
Launch vehicle
CHANG ZHENG 5
Launch site
Wenchang Satellite Launch Center (WSC)
Object type
Payload
Rocket body
Debris
Shape & HBR
Box + 2 Pan, Unknown HBR
Radar Cross Section
53.633 m², Large (>1 m²)

Expand to show TLE details & history
Last TLE update: 2 days ago

TLE from 2 days ago
0 SJ-20
1 44910U 19097A   26171.26850186  .00000130  00000-0  00000+0 0  9990
2 44910   4.9274  75.0271 0014829  52.9458 281.9613  1.00266805 23727
Epoch: 2026-06-20T06:26Z
TLE epoch observation values (Epoch: 2026-06-20T06:26:38.560Z)
Latitude
-2.09001°
Longitude
44.71848°
Altitude
35,774.623 km
Speed
3.076 km/s
True Right ascension
03h 19m 27s
True Declination
-2° 05' 16"
Sunlit
Object was in daylight at epoch
Visualization orbit readout
Latitude
Unknown
Longitude
Unknown
Altitude
Unknown
Speed
Unknown
Apparent Right ascension
Unknown
Apparent Declination
Unknown
Sunlit
N/A
Visualization observer readout
Local Sidereal Time
21:23:22
Azimuth
Unknown
Elevation
Unknown
Doppler factor
Unknown
Orbital elements
Apogee altitude
35,851.58 km
Perigee altitude
35,726.52 km
Semi-major axis
42,167.187 km
Eccentricity
0.00148
Inclination
4.9274°
RAAN
75.0271°
Arg. of periapsis
52.9458°
True anomaly
281.795°
Mean anomaly
281.9613°
Eccentric anomaly
281.87816°
Mean motion
0.25066 °/min
Orbital period
1,436.22 mins
BSTAR
0
Loading maneuver chart data...
Computing Atmospheric mass density...
Loading historical data...
Loading historical data...
Loading historical data...
Loading historical data...
Loading historical data...
Loading historical data...
Loading historical data...
Other satellites on launch #97 in the year 2019 (2019-12-27 UTC)

Documentation

Showing up to 5 results
|